O3B FM15 (43231 NORAD) Tracking and Keplerian Element Data.

This shows tracking and keplerian element data for the satellite.

Feedback or suggestion? Click here.

NameO3B FM15
Epoch Orbit35
Epoch Day75.86621755
Epoch Year2018
Argument of Perigee142.972
Mean Anonmoly88.0628
Mean Motion5.18907319
Decay Rate-1.9E-07
L11 43231U 18024A 18075.86621755 -.00000019 00000-0 00000+0 0 9999
L22 43231 0.1193 349.7436 0505871 142.9720 88.0628 5.18907319 359

Live tracking and technical data element details for O3B FM15 (NORAD 43231). O3B FM15 can be tracked NOW for your location showing map with azimuth and elevation plus other details from your city location.

Tracking and technical details about the satellite: track the satellite on the map from your city or location and see movement details for azimuth, elevation, latitude, longitude, range, height, and movement on the map or in text.

Es'hailsat 2 (coming in 2018)

IsCatalogInMostPopularTable: catalog: 43231, numindb: 2
Update: records affected: 1

GetName: 43231 O3B FM15

Hit Count: updated at: Thu, 22 Mar 2018 13:46:26 GMT